CW9336 Weather Reports


time (UTC)temp
C
wind
direction
speed
KPH
gust
KPH
rain 1hr
cm
rain 24hr
cm
rain mn
cm
humidity
%
barometer
mb
20260507023013 8 313 0.0 3.2 0.00 0.03 0.03 54 1013.8
20260507021510 9 338 0.0 3.2 0.00 0.05 0.03 53 1013.6
20260507020012 9 338 0.0 3.2 0.00 0.05 0.03 52 1013.5
20260507014513 10 22 0.0 3.2 0.00 0.08 0.03 51 1013.5
20260507013011 10 360 3.2 9.7 0.00 0.10 0.03 49 1013.3
20260507011528 10 351 3.2 11.3 0.00 0.13 0.03 48 1013.1
20260507010019 11 360 3.2 8.0 0.00 0.13 0.03 49 1012.9
20260507004516 11 331 3.2 6.4 0.00 0.15 0.03 48 1012.9
20260507003016 11 352 1.6 6.4 0.00 0.15 0.03 46 1012.9
20260507001525 11 321 1.6 11.3 0.00 0.15 0.03 45 1012.8
20260507000019 12 352 1.6 14.5 0.00 0.15 0.03 42 1012.9
20260506234518 12 309 3.2 6.4 0.00 0.18 0.03 42 1012.9
20260506233019 12 352 1.6 11.3 0.00 0.18 0.03 42 1012.9
20260506231520 12 252 3.2 17.7 0.00 0.20 0.03 40 1012.7
20260506230020 12 352 6.4 12.9 0.00 0.23 0.03 40 1012.7
20260506224520 12 272 3.2 19.3 0.00 0.25 0.03 41 1012.6
20260506223020 13 9 4.8 6.4 0.00 0.25 0.03 40 1012.7
20260506221515 13 9 6.4 12.9 0.00 0.25 0.03 37 1012.6
20260506220016 12 352 4.8 11.3 0.00 0.25 0.03 39 1012.7
20260506214517 12 252 1.6 4.8 0.00 0.28 0.03 41 1012.7
20260506213022 12 306 1.6 11.3 0.00 0.33 0.03 39 1012.7
20260506211503 13 352 3.2 11.3 0.00 0.36 0.03 40 1012.5
20260506210009 13 21 4.8 14.5 0.00 0.41 0.03 39 1012.5
20260506204503 12 304 3.2 20.9 0.00 0.41 0.03 39 1012.5
20260506203005 13 57 4.8 16.1 0.00 0.43 0.03 37 1012.5
20260506201504 13 263 3.2 17.7 0.00 0.46 0.03 37 1012.8
20260506200004 13 327 3.2 16.1 0.00 0.46 0.03 40 1012.8
20260506194505 12 60 6.4 20.9 0.00 0.46 0.03 39 1012.7
20260506193004 12 299 8.0 19.3 0.00 0.46 0.03 42 1013.0
20260506191504 11 293 8.0 16.1 0.00 0.46 0.03 37 1013.1
20260506190005 12 44 11.3 20.9 0.00 0.46 0.03 39 1013.0
20260506184509 12 360 11.3 17.7 0.00 0.51 0.03 37 1013.0
20260506183011 12 259 3.2 19.3 0.00 0.51 0.03 43 1012.7
20260506181509 12 16 11.3 20.9 0.00 0.51 0.03 37 1012.5
20260506180013 12 344 9.7 20.9 0.00 0.51 0.03 38 1012.4
20260506174513 12 9 3.2 22.5 0.00 0.51 0.03 40 1012.5
20260506173019 12 352 12.9 27.4 0.00 0.51 0.03 37 1012.7
20260506171515 12 346 11.3 24.1 0.00 0.51 0.03 40 1012.8
20260506170017 12 326 8.0 22.5 0.00 0.51 0.03 41 1012.9
20260506164516 12 346 6.4 19.3 0.00 0.51 0.03 41 1012.8
20260506163031 13 59 8.0 22.5 0.00 0.51 0.03 43 1012.9
20260506161520 13 26 4.8 20.9 0.00 0.51 0.03 43 1012.8
20260506160021 12 9 8.0 22.5 0.00 0.51 0.03 46 1012.9
20260506154524 12 18 11.3 22.5 0.00 0.51 0.03 44 1012.9
20260506153021 12 336 12.9 22.5 0.00 0.51 0.03 45 1012.9
20260506151529 11 9 9.7 19.3 0.00 0.51 0.03 47 1012.5
20260506150022 11 271 4.8 17.7 0.00 0.51 0.03 46 1012.5
20260506144532 11 360 9.7 19.3 0.00 0.51 0.03 46 1012.3
20260506143027 11 344 11.3 19.3 0.00 0.51 0.03 46 1012.3
20260506141531 11 33 6.4 17.7 0.00 0.51 0.03 51 1012.1
20260506140006 11 46 9.7 19.3 0.00 0.51 0.03 49 1012.1
20260506134508 10 360 9.7 24.1 0.00 0.51 0.03 49 1012.0
20260506133007 10 265 6.4 16.1 0.00 0.51 0.03 55 1011.9
20260506131532 10 352 6.4 16.1 0.00 0.51 0.03 58 1011.6
20260506130011 9 323 8.0 19.3 0.00 0.51 0.03 64 1011.4
20260506124511 8 348 9.7 17.7 0.00 0.51 0.03 67 1011.3
20260506123014 7 22 6.4 12.9 0.00 0.51 0.03 73 1011.3
20260506121514 6 24 4.8 8.0 0.00 0.51 0.03 80 1011.0
20260506120018 6 344 0.0 4.8 0.00 0.51 0.03 84 1010.9
20260506114516 6 344 1.6 4.8 0.00 0.51 0.03 84 1010.7
20260506113018 6 342 0.0 0.0 0.00 0.51 0.03 86 1010.3
20260506111516 6 306 0.0 4.8 0.00 0.51 0.03 87 1010.2
20260506110022 6 348 1.6 6.4 0.00 0.51 0.03 89 1009.9
20260506104519 6 343 0.0 0.0 0.00 0.51 0.03 91 1009.7
20260506103022 6 333 1.6 3.2 0.00 0.51 0.03 92 1009.6
20260506101539 6 329 0.0 0.0 0.00 0.51 0.03 92 1009.5
20260506100026 6 329 0.0 1.6 0.00 0.51 0.03 92 1009.7
20260506094525 6 321 0.0 3.2 0.00 0.51 0.03 92 1009.1
20260506093037 6 283 0.0 0.0 0.00 0.51 0.03 92 1009.2
20260506091504 6 268 0.0 0.0 0.00 0.51 0.03 92 1009.2
20260506090005 6 268 0.0 0.0 0.00 0.51 0.03 92 1009.5
20260506084505 6 268 0.0 0.0 0.00 0.51 0.03 92 1009.1
20260506083007 6 268 0.0 0.0 0.00 0.51 0.03 92 1009.0
20260506081506 6 268 0.0 0.0 0.00 0.53 0.03 92 1009.5
20260506073020 6 268 0.0 0.0 0.00 0.53 0.03 92 1009.1
20260506071514 6 268 0.0 0.0 0.00 0.53 0.03 92 1009.1
20260506061516 7 342 0.0 0.0 0.00 0.53 0.03 92 1009.6
20260506044549 7 328 0.0 0.0 0.00 0.51 0.00 92 1009.7
20260506043022 7 328 0.0 0.0 0.00 0.51 0.00 92 1009.4
20260506041524 7 328 0.0 0.0 0.00 0.51 0.00 92 1009.5
20260506040028 7 328 0.0 0.0 0.00 0.58 0.00 91 1009.6
20260506034548 7 328 0.0 0.0 0.00 0.58 0.58 91 1009.4
20260506033027 7 328 0.0 0.0 0.00 0.58 0.58 91 1009.3
20260506031528 7 328 0.0 0.0 0.03 0.58 0.58 90 1009.4
20260506030028 7 328 0.0 0.0 0.03 0.58 0.58 90 1009.2
20260506024528 7 328 0.0 0.0 0.05 0.58 0.58 88 1009.4